User: anonymous   Login
Location: Austin
(30.3000°N, 97.7500°W)
Time: 17:25:27
(UTC-05:00)
Language:

H-2A R/B - Orbit

View from above orbital plane
View from above orbital plane
View from above satellite
View from above satellite

Ground track
Ground track

The orbit data is extracted from the following two-line orbital elements,

1 37159U 10045B   24147.26786970  .01804559  79642-7  67866-3 0  9991
2 37159  31.7781 100.1549 1933347 104.4957 277.6869 11.94355922222051
Epoch (UTC): 26 May 2024 06:25:43
Eccentricity: 0.1933347
inclination: 31.7781°
perigee height: 143 km
apogee height: 3269 km
right ascension of ascending node: 100.1549°
argument of perigee: 104.4957°
revolutions per day: 11.94355922
mean anomaly at epoch: 277.6869°
orbit number at epoch: 22205

The dashed part of the orbit path shows where the satellite is in the earth's shadow,  

DLR